This demonstration page uses our WeatherBlox Daily Observations layout. Learn more.

Left ArrowRight Arrow

Hourly Observations for December 13, 2016

Temp ( °F °C ) Dew Point ( °F °C ) Humidity (%) Winds ( mph kmh ) Pressure ( in mb ) Visibility ( mi km ) Precip ( " mm )
12:19 am 00:19 Clear 23 -5 21 -6 93 93 N N/A 30.18 1022 7 11 N/A
12:39 am 00:39 Clear 23 -5 21 -6 93 93 N N/A 30.18 1022 7 11 N/A
12:59 am 00:59 Clear 23 -5 21 -6 93 93 ENE 5 7 30.18 1022 7 11 N/A
1:18 am 01:18 Clear 23 -5 21 -6 93 93 N N/A 30.18 1022 7 11 N/A
1:40 am 01:40 Clear 25 -4 21 -6 86 86 N N/A 30.15 1021 7 11 N/A
1:59 am 01:59 Partly Cloudy 25 -4 23 -5 93 93 SSW 3 6 30.18 1022 7 11 N/A
2:19 am 02:19 Mostly Cloudy 25 -4 23 -5 93 93 S 5 7 30.15 1021 7 11 N/A
2:40 am 02:40 Cloudy 27 -3 23 -5 86 86 SW 5 7 30.21 1023 7 11 N/A
2:59 am 02:59 Cloudy 27 -3 23 -5 86 86 SSW 8 13 30.21 1023 7 11 N/A
3:19 am 03:19 Cloudy 27 -3 23 -5 86 86 SSW 5 7 30.21 1023 7 11 N/A
3:40 am 03:40 Cloudy 27 -3 23 -5 86 86 SSW 6 9 30.21 1023 7 11 N/A
3:59 am 03:59 Cloudy 27 -3 25 -4 93 93 S 7 11 30.21 1023 7 11 N/A
4:19 am 04:19 Cloudy 27 -3 25 -4 93 93 S 7 11 30.18 1022 7 11 N/A
4:40 am 04:40 Cloudy 27 -3 25 -4 93 93 S 6 9 30.18 1022 7 11 N/A
4:59 am 04:59 Cloudy 27 -3 25 -4 93 93 N N/A 30.18 1022 7 11 N/A
5:19 am 05:19 Cloudy 28 -2 25 -4 86 86 N N/A 30.18 1022 7 11 N/A
5:40 am 05:40 Cloudy 28 -2 25 -4 86 86 N N/A 30.18 1022 7 11 N/A
5:59 am 05:59 Cloudy 28 -2 25 -4 86 86 N N/A N/A 7 11 N/A
6:19 am 06:19 Cloudy 28 -2 25 -4 86 86 N N/A 30.18 1022 7 11 N/A
6:39 am 06:39 Cloudy 28 -2 25 -4 86 86 SE 3 6 30.15 1021 7 11 N/A
6:59 am 06:59 Cloudy 28 -2 27 -3 93 93 SSE 5 7 30.15 1021 7 11 N/A
7:18 am 07:18 Mostly Cloudy 28 -2 25 -4 86 86 SSE 7 11 30.15 1021 7 11 N/A
7:39 am 07:39 Mostly Cloudy 28 -2 25 -4 86 86 N N/A 30.15 1021 7 11 N/A
8:00 am 08:00 Cloudy 28 -2 25 -4 86 86 N N/A 30.18 1022 7 11 N/A
8:19 am 08:19 Cloudy 28 -2 27 -3 93 93 N N/A 30.18 1022 7 11 N/A
8:39 am 08:39 Cloudy 28 -2 27 -3 93 93 WSW 3 6 30.18 1022 4 6 N/A
9:00 am 09:00 Cloudy 28 -2 27 -3 93 93 N N/A 30.18 1022 2 2 N/A
9:19 am 09:19 Cloudy 28 -2 27 -3 93 93 N N/A 30.18 1022 1 1 N/A
9:40 am 09:40 Cloudy 28 -2 27 -3 93 93 N N/A 30.18 1022 1 1 N/A
9:59 am 09:59 Cloudy 28 -2 28 -2 100 100 N N/A 30.18 1022 1 1 N/A
10:19 am 10:19 Cloudy 28 -2 28 -2 100 100 N N/A 30.18 1022 0 0 N/A
10:40 am 10:40 Cloudy 28 -2 28 -2 100 100 N N/A 30.21 1023 0 0 N/A
10:59 am 10:59 Cloudy 30 -1 28 -2 93 93 N N/A 30.18 1022 1 1 N/A
11:19 am 11:19 Cloudy 30 -1 28 -2 93 93 N N/A 30.18 1022 1 1 N/A
11:40 am 11:40 Cloudy 30 -1 28 -2 93 93 N N/A 30.18 1022 1 2 N/A
11:59 am 11:59 Cloudy 30 -1 28 -2 93 93 N N/A 30.18 1022 1 1 N/A
12:19 pm 12:19 Cloudy 30 -1 28 -2 93 93 N N/A 30.15 1021 1 1 N/A
12:40 pm 12:40 Cloudy 32 undefined 30 -1 93 93 N N/A 30.15 1021 1 1 N/A
12:59 pm 12:59 Cloudy 32 undefined 30 -1 93 93 N N/A 30.15 1021 1 1 N/A
1:19 pm 13:19 Cloudy 30 -1 30 -1 100 100 WNW 3 6 30.15 1021 1 2 N/A
1:40 pm 13:40 Cloudy 30 -1 30 -1 100 100 NW 5 7 30.15 1021 1 2 N/A
1:59 pm 13:59 Cloudy 32 undefined 28 -2 87 87 NW 6 9 30.15 1021 3 4 N/A
2:19 pm 14:19 Cloudy 32 undefined 30 -1 93 93 NW 7 11 30.15 1021 3 4 N/A
2:39 pm 14:39 Cloudy 30 -1 28 -2 93 93 NW 10 17 30.15 1021 3 5 N/A
2:59 pm 14:59 Cloudy 30 -1 28 -2 93 93 N 15 24 30.15 1021 4 6 N/A
4:19 pm 16:19 Cloudy 28 -2 25 -4 86 86 NW 8 13 30.18 1022 7 11 N/A
4:39 pm 16:39 Mostly Cloudy 28 -2 25 -4 86 86 NW 9 15 30.18 1022 5 8 N/A
5:39 pm 17:39 Mostly Cloudy 27 -3 21 -6 80 80 NW 12 19 30.18 1022 7 11 N/A
6:19 pm 18:19 Cloudy 25 -4 21 -6 86 86 NW 10 17 30.24 1024 10 16 N/A
6:39 pm 18:39 Cloudy 23 -5 19 -7 86 86 NNW 10 17 30.24 1024 7 11 N/A
7:19 pm 19:19 Cloudy 21 -6 18 -8 86 86 NW 8 13 30.27 1025 7 11 N/A
8:00 pm 20:00 Mostly Cloudy 19 -7 16 -9 86 86 NW 6 9 30.27 1025 7 11 N/A
8:19 pm 20:19 Partly Cloudy 18 -8 14 -10 86 86 WNW 5 7 30.27 1025 7 11 N/A
8:40 pm 20:40 Clear 18 -8 14 -10 86 86 NW 6 9 30.27 1025 7 11 N/A
8:59 pm 20:59 Clear 14 -10 12 -11 92 92 NW 6 9 30.27 1025 5 8 N/A
9:19 pm 21:19 Clear 16 -9 14 -10 93 93 NW 7 11 30.27 1025 5 8 N/A
9:40 pm 21:40 Clear 14 -10 12 -11 92 92 WNW 7 11 30.27 1025 5 8 N/A
9:59 pm 21:59 Clear 14 -10 12 -11 92 92 NW 6 9 30.27 1025 7 11 N/A
10:19 pm 22:19 Mostly Cloudy 14 -10 12 -11 92 92 NW 7 11 30.27 1025 7 11 N/A
10:40 pm 22:40 Cloudy 16 -9 10 -12 79 79 WNW 9 15 30.30 1026 10 16 N/A
10:59 pm 22:59 Cloudy 14 -10 10 -12 85 85 WNW 9 15 30.30 1026 10 16 N/A
11:19 pm 23:19 Mostly Cloudy 14 -10 9 -13 79 79 NW 8 13 30.30 1026 10 16 N/A
11:40 pm 23:40 Partly Cloudy 12 -11 9 -13 85 85 NW 6 9 30.30 1026 10 16 N/A
11:59 pm 23:59 Clear 10 -12 7 -14 85 85 N N/A 30.33 1027 10 16 N/A

Powered by AerisWeather